www.pogodaiklimat.ru

Погода и климат >> Архив погоды >> Россия >> Липецкая область >> Конь-Колодезь


ПОГОДА в Конь-Колодезе

  • Прогноз погоды в Конь-Колодезе
  • Монитор погоды в Конь-Колодезе

АРХИВ ПОГОДЫ в Конь-Колодезе

Время (UTC), дата Ветер
(напр.,м/с)
 
Видим.   Явления Облачность Т
(С)
Тd
(С)
f
(%)
Тe
(С)
Тes
(С)
Комфортность P
(гПа)
Po
(гПа)
Тmin
(С)
Tmax
(С)
R
(мм)
R24
(мм)
S
(см)
18 17.06 С 1 10 км 6/3 1000 м
[Sc diur, vesp Ac trans Ci fib]
+21.8 +13.2 58 +24 +24 комфорт 1016.0 1000.0
21 17.06 штиль 0 4000 м дымка 3/0
[Ci fib]
+16.8 +12.8 77 +17 +17 1014.9 998.7
00 18.06 штиль 0 4000 м дымка 4/0
[Ac trans Ci fib]
+14.5 +12.8 90 +14 +14 1015.3 999.0
03 18.06 В 1 4000 м дымка 6/0
[Ac trans]
+15.8 +13.2 85 +16 +18 1015.7 999.3 +13.3
06 18.06 СВ 2 10 км 6 баллов +23.8 +15.0 58 +27 +31 жарко 1015.9 1000.0
09 18.06 СВ 3 10 км 6/4 1000 м
[Sc Ac trans]
+26.8 +14.1 46 +29 +36 жарко 1013.9 998.2
12 18.06 СВ 4 20 км 6/5 1000 м
[Sc Ci fib]
+27.3 +14.3 45 +30 +33 душно 1013.0 997.3
15 18.06 В 4 20 км 8/6 600 м
[Cb calv Ac trans Ci fib]
+27.7 +16.3 50 +31 +32 душно 1011.3 995.7 +28.2
18 18.06 СВ 4
{16}
10 км гроза без осадков {ливн. осадки} 8/8 300 м
[Cb cap]
+18.0 +15.6 86 +18 +18 1013.2 997.1
21 18.06 С 1 10 км {гроза} 3/3 1000 м
[Sc]
+17.2 +15.1 87 +18 +18 1013.1 997.0
00 19.06 СЗ 1 10 км {гроза} ясно +16.0 +14.0 88 +17 +17 1015.0 998.7
03 19.06 СЗ 2 10 км 3/3 600 м
[Sc]
+16.8 +14.9 89 +17 +18 1014.0 997.8 +15.4 15
06 19.06 СВ 2 10 км ясно +22.8 +16.8 69 +28 +38 душно 1015.9 1000.0
09 19.06 СВ 3 10 км 6/6 1000 м
[Cu hum]
+26.2 +13.7 46 +28 +34 жарко 1014.7 998.9
12 19.06 С 3 10 км 6/4 1000 м
[Cu hum Ci fib]
+27.5 +11.5 37 +28 +33 жарко 1015.7 1000.0
15 19.06 С 3 10 км 6/3 1000 м
[Cu med, cong Ac trans Ci fib]
+27.3 +12.6 40 +29 +30 жарко 1014.2 998.5 +28.3
18 19.06 С 1 10 км 3/1 1000 м
[Sc Ac trans]
+23.9 +15.9 61 +27 +27 жарко 1015.9 1000.0
21 19.06 С 1 4000 м дымка 6/0
[Ci fib]
+19.0 +15.6 81 +21 +21 комфорт 1015.6 999.5
00 20.06 штиль 0 4000 м дымка 3/0
[Ci fib]
+15.7 +14.3 91 +15 +15 1016.6 1000.3
03 20.06 штиль 0 4000 м дымка 1/0
[Ci fib]
+15.9 +13.9 88 +16 +18 1017.1 1000.8 +14.2
06 20.06 С 1 10 км ясно +24.8 +13.3 49 +27 +39 жарко 1018.6 1002.7
09 20.06 СВ 2 10 км 4/4 1000 м
[Cu hum]
+27.8 +11.0 35 +29 +39 жарко 1016.5 1000.8
12 20.06 СВ 2 10 км 4/3 1000 м
[Cu hum Ci fib]
+29.2 +9.3 29 +29 +37 жарко 1017.0 1001.3
15 20.06 СВ 2 10 км 4/3 1000 м
[Sc diur, vesp Ci fib]
+29.6 +11.8 33 +30 +32 жарко 1015.7 1000.1 +29.9
18 20.06 С 2 10 км 1/0
[Ac trans]
+24.4 +12.3 47 +26 +26 жарко 1017.2 1001.3
21 20.06 С 1 10 км ясно +19.8 +13.7 68 +23 +23 комфорт 1016.9 1000.8
00 21.06 штиль 0 4000 м дымка ясно +16.0 +13.5 85 +16 +16 1019.1 1002.7
03 21.06 штиль 0 4000 м дымка 3/0
[Ci fib]
+16.6 +14.5 87 +16 +18 1018.5 1002.3 +14.4
06 21.06 ЮВ 1 10 км 3/0
[Ci fib]
+26.9 +17.4 56 +31 +40 душно 1019.8 1004.0
09 21.06 Ю 3 10 км 6/6 600 м
[Cu hum]
+30.4 +12.0 32 +31 +37 жарко 1017.8 1002.2
12 21.06 З 2 10 км 6/6 600 м
[Cb calv]
+31.3 +10.6 28 +31 +36 жарко 1018.3 1002.7
15 21.06 В 2 10 км 6/5 1000 м
[Sc diur, vesp Ci fib]
+30.8 +11.9 31 +31 +33 жарко 1016.8 1001.3 +32.3
18 21.06 С 1 10 км 3/0
[Ci fib]
+26.3 +15.0 50 +29 +29 жарко 1017.1 1001.3
21 21.06 штиль 0 10 км 3/0
[Ci fib]
+20.1 +16.3 79 +23 +23 комфорт 1017.6 1001.6
00 22.06 ЮВ 1 н/о н/о +17.2 +14.5 84 +18 +18 1019.0 1002.7
03 22.06 штиль 0 4000 м дымка 6/6 1000 м
[Sc]
+18.6 +15.9 84 +19 +20 1018.3 1002.2 +16.4
06 22.06 штиль 0 10 км 6/6 600 м
[Sc]
+26.5 +15.8 52 +30 +35 душно 1019.8 1004.0
09 22.06 ЮЗ 2 20 км 8/5 600 м
[Sc diur, vesp Ac trans]
+31.5 +12.5 31 +32 +38 жарко 1017.7 1002.2
12 22.06 З 3 20 км 8/6 1000 м
[Sc diur, vesp Ci fib]
+33.1 +10.4 25 +33 +36 жарко 1018.2 1002.7
15 22.06 СЗ 2 10 км 3/3 1000 м
[Sc diur, vesp Ci fib]
+32.5 +11.3 27 +32 +34 жарко 1016.7 1001.2 +33.2
18 22.06 СВ 1 10 км 1 балл +26.9 +15.3 49 +30 +30 душно 1018.5 1002.7
21 22.06 штиль 0 10 км 3/1 1000 м
[Sc Ci fib]
+20.6 +15.8 74 +23 +23 комфорт 1017.8 1001.8
00 23.06 штиль 0 10 км 7 баллов +18.7 +15.8 83 +20 +20 1018.9 1002.7
03 23.06 штиль 0 10 км 8/6 1000 м
[Sc Ci fib]
+19.3 +16.1 82 +21 +22 комфорт 1018.3 1002.2 +17.3
06 23.06 С 2 10 км 7 баллов +27.3 +16.6 52 +31 +34 душно 1018.4 1002.7
09 23.06 Ю 2 20 км 9/4 1000 м
[Sc Ci fib]
+33.5 +12.2 27 +34 +42 очень
жарко
1017.1 1001.7
12 23.06 З 2 20 км 9 баллов +32.9 +9.6 24 +32 +33 жарко 1018.2 1002.7
15 23.06 З 2 20 км 8/4 1000 м
[Sc Ci fib]
+32.9 +11.0 26 +33 +34 жарко 1015.7 1000.3 +34.5
18 23.06 В 1 10 км 4 балла +28.1 +14.0 42 +30 +30 жарко 1017.0 1001.3
21 23.06 штиль 0 10 км 1/1 1000 м
[Sc]
+21.4 +16.1 72 +25 +25 комфорт 1016.6 1000.6
00 24.06 С 4 10 км 7 баллов +21.0 +17.6 81 +25 +25 комфорт 1018.8 1002.7
03 24.06 С 3 10 км 9/3 1000 м
[Sc Ac trans Ci fib]
+20.2 +15.9 76 +23 +24 комфорт 1018.0 1002.0 +19.2
06 24.06 С 2 10 км 9 баллов +23.3 +15.9 63 +28 +29 душно 1018.6 1002.7
09 24.06 С 4 10 км 8/6 600 м
[Sc Ac trans Ci fib]
+26.6 +16.8 55 +30 +34 душно 1017.6 1001.9
12 24.06 С 5 10 км 6 баллов +29.3 +15.4 43 +32 +35 душно 1018.3 1002.7
15 24.06 С 4 10 км 6/3 600 м
[Sc Ac trans Ci fib]
+28.3 +15.9 47 +31 +33 душно 1017.6 1002.0 +29.4

 

Местоположение метеостанции Конь-Колодезь (Липецкая область, Россия): широта 52.15 долгота 39.15 высота над уровнем моря 138 м.

В архиве по умолчанию представлена погода в Конь-Колодезе за последнюю неделю. Архивные данные за месяц целиком и за предыдущие месяцы, начиная с января 2011 года, Вы можете получить, выбрав интересующий диапазон дат из раскрывающегося списка и нажав кнопку "Ввод!".


*Определитесь, кто Вы:
робот инопланетянин человек

Внимание! Время в таблицах - всемирное. Для получения местного времени необходимо прибавить поправку, которая равна 3 ч.

Смотрите также архив погоды в соседних городах и на ближайших метеорологических станциях:

Погода в Воронеже (Воронежская область, Россия) (50 км)
Погода в Липецке (Липецкая область, Россия) (66 км)
Погода в Ельце (Липецкая область, Россия) (68 км)
Погода в Нижнедевицке (Воронежская область, Россия) (85 км)
Погода в Ливнах (Орловская область, Россия) (110 км)
Погода в Анне (Воронежская область, Россия) (115 км)
Погода в Совхозе им. Ленина (Тамбовская область, Россия) (117 км)
Погода в Льве Толстом (Липецкая область, Россия) (121 км)
Погода в Мичуринске (Тамбовская область, Россия) (121 км)
Погода в Старом Осколе (Белгородская область, Россия) (129 км)

Пояснения к столбцам:

Ветер - указаны скорость ветра в м/с - средняя за 10 мин, порывы в срок и между сроками (в фигурных скобках) и направление, откуда дует ветер: С - северный, СВ - северо-восточный, В - восточный, ЮВ - юго-восточный, Ю - южный, ЮЗ - юго-западный, З - западный, СЗ - северо-западный.
Видимость - горизонтальная дальность видимости в метрах или километрах. При видимости от 1 до 10 км при отсутствии осадков обычно наблюдается дымка, при ухудшении видимости до 1 км и менее - туман. В сухую погоду видимость может ухудшаться дымом, пылью или мглою.
Явления - указаны атмосферные явления, наблюдавшиеся в срок или в последний час перед сроком; фигурными скобками обозначены явления, наблюдавшиеся между сроками (за 1-3 часа до срока); квадратными скобками обозначены град или гололедные отложения с указанием их диаметра в мм.
Облачность - указаны через наклонную черту общая и нижняя облачность в баллах и высота нижней границы облаков в метрах; квадратными скобками обозначены формы облаков: Ci - перистые, Cs - перисто-слоистые, Cc - перисто-кучевые, Ac - высококучевые, As - высокослоистые, Sc - слоисто-кучевые, Ns - слоисто-дождевые, Cu - кучевые, Cb - кучево-дождевые. Подробнее классификацию облаков см. в Атласе облаков (PDF).
T - Температура воздуха - температура, измеренная на высоте 2 м над землей.
Td - Температура точки росы - температура, при понижении до которой содержащийся в воздухе водяной пар достигнет насыщения.
f - Относительная влажность воздуха - влажноcть воздуха, измеренная на высоте 2 м над землей.
Te - Эффективная температура - температура, которую ощущает одетый по сезону человек в тени. Характеристика душности погоды. При расчете учитывается влияние влажности воздуха и скорости ветра на теплоощущения человека.
Tes - Эффективная температура на солнце - температура, которую ощущает человек, с поправкой на солнечный нагрев. Характеристика знойности погоды. Зависит от высоты солнца над горизонтом, облачности и скорости ветра. Ночью, в пасмурную погоду, а также при ветре 12 м/с и более поправка равна нулю.
P - Атмосферное давление - приведенное к уровню моря атмосферное давление.
Po - Атмосферное давление - измеренное на уровне метеостанции атмосферное давление.
Tmin - Минимальная температура - минимум температуры воздуха на высоте 2 м над землей.
Tmax - Максимальная температура - максимум температуры воздуха на высоте 2 м над землей.
R - Количество осадков - Количество выпавших осадков за период времени, мм. При наведении курсора мыши на число - период времени, за который выпало указанное количество осадков.
R24 - Количество осадков - Количество выпавших осадков за 24 часа, мм.
S - Снежный покров - Высота снежного покрова, см. При наведении курсора мыши на число - состояние снежного покрова и степень покрытия местности в баллах.